FW9893 Weather Reports


Display with metric or nautical units.
time (UTC)temp
F
wind
direction
speed
MPH
gust
MPH
rain 1hr
in
rain 24hr
in
rain mn
in
humidity
%
barometer
mb
20260906183048 89 151 1.0 4.0 0.00 0.00 0.00 69 1016.8
20260906181600 88 220 1.0 4.0 0.00 0.00 0.00 70 1016.9
20260906180108 88 141 2.0 7.0 0.00 0.00 0.00 71 1017.0
20260906174546 86 242 1.0 4.0 0.00 0.00 0.00 73 1017.2
20260906173045 85 217 1.0 6.0 0.00 0.00 0.00 75 1017.3
20260906171543 84 242 2.0 4.0 0.00 0.00 0.00 76 1017.5
20260906170057 84 227 0.0 6.0 0.00 0.00 0.00 75 1017.7
20260906164549 84 113 1.0 6.0 0.00 0.00 0.00 77 1017.9
20260906163103 84 151 1.0 5.0 0.00 0.00 0.00 76 1018.0
20260906161542 83 180 0.0 3.0 0.00 0.00 0.00 76 1017.8
20260906160046 82 153 1.0 7.0 0.00 0.00 0.00 77 1017.9
20260906154543 81 207 0.0 2.0 0.00 0.00 0.00 80 1018.0
20260906153047 80 314 0.0 0.0 0.00 0.00 0.00 83 1018.2
20260906151550 78 314 0.0 3.0 0.00 0.00 0.00 85 1018.1
20260906150046 77 314 0.0 3.0 0.00 0.00 0.00 87 1018.0
20260906144544 77 236 1.0 6.0 0.00 0.00 0.00 87 1017.9
20260906143047 78 124 2.0 7.0 0.00 0.00 0.00 86 1017.3
20260906141548 77 107 2.0 7.0 0.00 0.00 0.00 87 1017.3
20260906140056 77 133 3.0 7.0 0.00 0.00 0.00 87 1017.3
20260906134643 76 97 2.0 7.0 0.00 0.00 0.00 88 1017.3
20260906133120 76 122 1.0 7.0 0.00 0.00 0.00 88 1017.3
20260906131610 75 160 2.0 7.0 0.00 0.00 0.00 89 1017.3
20260906130100 75 74 1.0 4.0 0.00 0.00 0.00 90 1017.0
20260906124547 74 113 2.0 6.0 0.00 0.00 0.00 90 1016.9
20260906123048 74 134 1.0 5.0 0.00 0.00 0.00 90 1016.6
20260906121552 73 149 1.0 5.0 0.00 0.00 0.00 90 1016.5
20260906120049 73 120 1.0 4.0 0.00 0.00 0.00 90 1016.3
20260906114613 74 87 1.0 3.0 0.00 0.00 0.00 90 1016.3
20260906113102 74 87 1.0 4.0 0.00 0.00 0.00 89 1016.2
20260906111614 74 46 1.0 3.0 0.00 0.00 0.00 88 1016.0
20260906110118 74 91 1.0 5.0 0.00 0.00 0.00 88 1016.0
20260906104607 74 131 1.0 4.0 0.00 0.00 0.00 88 1015.9
20260906103123 74 108 1.0 4.0 0.00 0.00 0.00 88 1015.9
20260906101619 75 143 1.0 4.0 0.00 0.00 0.00 87 1015.9
20260906100106 75 120 1.0 7.0 0.00 0.00 0.00 87 1015.8
20260906094614 75 133 1.0 6.0 0.00 0.00 0.00 88 1015.7
20260906093057 75 148 1.0 5.0 0.00 0.00 0.00 88 1015.8
20260906091555 75 182 1.0 5.0 0.00 0.00 0.00 89 1015.7
20260906090101 75 134 1.0 4.0 0.00 0.00 0.00 89 1015.8
20260906084554 75 157 1.0 6.0 0.00 0.00 0.00 90 1015.8
20260906083100 75 116 1.0 4.0 0.00 0.00 0.00 89 1015.8
20260906081555 75 115 1.0 5.0 0.00 0.00 0.00 89 1015.7
20260906080147 75 128 1.0 3.0 0.00 0.00 0.00 89 1015.9
20260906074559 76 98 1.0 3.0 0.00 0.00 0.00 88 1015.7
20260906073047 76 111 1.0 4.0 0.00 0.00 0.00 88 1015.7
20260906071554 76 130 1.0 5.0 0.00 0.00 0.00 88 1015.7
20260906064545 76 90 0.0 4.0 0.00 0.00 0.00 87 1015.9
20260906063122 77 86 1.0 3.0 0.00 0.00 0.00 87 1016.0
20260906061552 77 136 1.0 5.0 0.00 0.00 0.00 87 1015.9
20260906060106 77 143 1.0 5.0 0.00 0.00 0.00 88 1016.1
20260906054612 77 153 1.0 4.0 0.00 0.00 0.00 87 1016.2
20260906053053 77 67 0.0 5.0 0.00 0.00 0.00 87 1016.2
20260906051625 77 99 1.0 4.0 0.00 0.00 0.00 87 1016.0
20260906050524 77 111 2.0 6.0 0.00 0.00 0.00 88 1016.1
20260906050212 77 111 2.0 6.0 0.00 0.00 0.00 88 1016.1
20260906044545 78 89 1.0 3.0 0.00 0.00 0.00 87 1015.9
20260906043043 78 89 0.0 2.0 0.00 0.00 0.00 86 1016.0
20260906041550 79 89 0.0 1.0 0.00 0.00 0.00 86 1016.1
20260906040049 79 89 0.0 1.0 0.00 0.00 0.00 85 1016.1
20260906034542 80 89 0.0 4.0 0.00 0.00 0.00 85 1016.0
20260906033102 80 119 0.0 2.0 0.00 0.00 0.00 84 1016.0
20260906031549 80 119 0.0 0.0 0.00 0.00 0.00 84 1015.7
20260906030046 80 119 0.0 2.0 0.00 0.00 0.00 83 1015.4
20260906024541 81 119 0.0 3.0 0.00 0.00 0.00 83 1015.3
20260906023046 81 119 0.0 2.0 0.00 0.00 0.00 83 1015.1
20260906021557 82 119 0.0 0.0 0.00 0.00 0.00 82 1014.8
20260906020047 83 119 0.0 3.0 0.00 0.00 0.00 81 1014.7
20260906014546 83 119 0.0 2.0 0.00 0.00 0.00 81 1014.5
20260906013055 84 119 0.0 2.0 0.00 0.00 0.00 80 1014.1
20260906011604 85 119 0.0 0.0 0.00 0.00 0.00 78 1014.3
20260906010130 86 119 0.0 1.0 0.00 0.00 0.00 76 1013.8
20260906004549 87 119 0.0 3.0 0.00 0.00 0.00 74 1013.8
20260906003046 88 119 1.0 2.0 0.00 0.00 0.00 72 1013.8
20260906001600 90 119 1.0 3.0 0.00 0.00 0.00 70 1014.0
20260906000049 91 87 0.0 4.0 0.00 0.00 0.00 68 1014.0
20260905234606 92 122 1.0 4.0 0.00 0.00 0.00 66 1014.0
20260905233102 92 99 1.0 7.0 0.00 0.00 0.00 65 1013.9
20260905231556 93 86 2.0 9.0 0.00 0.00 0.00 64 1013.9
20260905230048 93 129 1.0 9.0 0.00 0.00 0.00 65 1013.9
20260905224610 93 180 2.0 10.0 0.00 0.00 0.00 64 1014.0
20260905223054 93 126 3.0 8.0 0.00 0.00 0.00 63 1014.0
20260905221553 93 138 5.0 10.0 0.00 0.00 0.00 62 1014.0
20260905214536 94 80 3.0 10.0 0.00 0.00 0.00 61 1014.0
20260905213037 94 128 3.0 10.0 0.00 0.00 0.00 62 1014.3
20260905210042 93 61 4.0 10.0 0.00 0.00 0.00 62 1014.7
20260905201539 94 102 4.0 8.0 0.00 0.00 0.00 61 1015.3
20260905200048 93 145 4.0 10.0 0.00 0.00 0.00 62 1015.7
20260905194538 92 130 3.0 10.0 0.00 0.00 0.00 63 1015.9
20260905193129 92 51 4.0 13.0 0.00 0.00 0.00 62 1016.2
20260905191538 92 22 3.0 12.0 0.00 0.00 0.00 64 1016.4
20260905190059 93 170 4.0 11.0 0.00 0.00 0.00 63 1016.8
20260905184555 93 76 3.0 8.0 0.00 0.00 0.00 61 1017.0